timestamp,surface_pressure_avg,surface_temp_avg,battery_voltage,lat,long
2019-01-14 00:00:00+00:00,240.4914,0.97,12.97,47.84626,-54.09684
2019-01-14 00:10:00+00:00,239.7348,0.9,12.89,47.84626,-54.09684
2019-01-14 00:20:00+00:00,239.0114,0.9,12.97,47.84626,-54.09684
2019-01-14 00:30:00+00:00,240.2664,0.9,12.97,47.84626,-54.09684
2019-01-14 00:40:00+00:00,240.5398,0.89,12.97,47.84626,-54.09684
2019-01-14 00:50:00+00:00,239.7881,0.8,12.97,47.84626,-54.09684
2019-01-14 01:00:00+00:00,242.2415,0.8,12.89,47.84626,-54.09684
2019-01-14 01:10:00+00:00,243.5914,0.79,12.81,47.84626,-54.09684
2019-01-14 01:20:00+00:00,241.4497,0.78,12.97,47.84626,-54.09684
2019-01-14 01:30:00+00:00,244.2797,0.79,12.97,47.84626,-54.09684
2019-01-14 01:40:00+00:00,252.6698,0.8,12.97,47.84626,-54.09684
2019-01-14 01:50:00+00:00,256.3131,0.8,12.97,47.84626,-54.09684
2019-01-14 02:00:00+00:00,257.9197,0.8,12.89,47.84626,-54.09684
2019-01-14 02:10:00+00:00,265.1497,0.8,12.81,47.84626,-54.09684
2019-01-14 02:20:00+00:00,272.6364,0.8,12.89,47.84626,-54.09684
2019-01-14 02:30:00+00:00,275.6198,0.8,12.89,47.84626,-54.09684
2019-01-14 02:40:00+00:00,279.2597,0.8,12.97,47.84626,-54.09684
2019-01-14 02:50:00+00:00,287.608,0.8,12.97,47.84626,-54.09684
2019-01-14 03:00:00+00:00,295.3163,0.8,12.81,47.84626,-54.09684
2019-01-14 03:10:00+00:00,298.0013,0.76,12.81,47.84626,-54.09684
2019-01-14 03:20:00+00:00,301.8864,0.75,12.89,47.84626,-54.09684
2019-01-14 03:30:00+00:00,310.3812,0.9,12.89,47.84626,-54.09684
2019-01-14 03:40:00+00:00,316.6379,1.0,12.89,47.84626,-54.09684
2019-01-14 03:50:00+00:00,318.3997,0.9,12.89,47.84626,-54.09684
2019-01-14 04:00:00+00:00,320.0863,0.8,12.81,47.84626,-54.09684
2019-01-14 04:10:00+00:00,320.3813,0.7,12.73,47.84626,-54.09684
2019-01-14 04:20:00+00:00,316.8079,0.6,12.81,47.84626,-54.09684
2019-01-14 04:30:00+00:00,315.4629,0.6,12.81,47.84626,-54.09684
2019-01-14 04:40:00+00:00,318.253,0.6,12.89,47.84626,-54.09684
2019-01-14 04:50:00+00:00,318.6296,0.6,12.89,47.84626,-54.09684
2019-01-14 05:00:00+00:00,318.1147,0.6,12.81,47.84626,-54.09684
2019-01-14 05:10:00+00:00,321.7246,0.6,12.73,47.84626,-54.09684
2019-01-14 05:20:00+00:00,323.0547,0.6,12.81,47.84626,-54.09684
2019-01-14 05:30:00+00:00,321.7147,0.6,12.81,47.84626,-54.09684
2019-01-14 05:40:00+00:00,322.3064,0.6,12.89,47.84626,-54.09684
2019-01-14 05:50:00+00:00,323.308,0.8,12.89,47.84626,-54.09684
2019-01-14 06:00:00+00:00,319.9013,0.87,12.73,47.84626,-54.09684
2019-01-14 06:10:00+00:00,317.5963,0.9,12.73,47.84626,-54.09684
2019-01-14 06:20:00+00:00,317.3663,0.9,12.81,47.84626,-54.09684
2019-01-14 06:30:00+00:00,313.7746,0.9,12.81,47.84626,-54.09684
2019-01-14 06:40:00+00:00,309.1996,0.9,12.81,47.84626,-54.09684
2019-01-14 06:50:00+00:00,306.8246,0.89,12.81,47.84626,-54.09684
2019-01-14 07:00:00+00:00,304.6097,0.9,12.73,47.84626,-54.09684
2019-01-14 07:10:00+00:00,298.0647,0.8,12.73,47.84626,-54.09684
2019-01-14 07:20:00+00:00,289.8113,0.8,12.81,47.84626,-54.09684
2019-01-14 07:30:00+00:00,282.6614,0.79,12.81,47.84626,-54.09684
2019-01-14 07:40:00+00:00,277.363,0.8,12.81,47.84626,-54.09684
2019-01-14 07:50:00+00:00,272.2831,0.77,12.81,47.84626,-54.09684
2019-01-14 08:00:00+00:00,267.0897,0.7,12.73,47.84626,-54.09684
2019-01-14 08:10:00+00:00,262.4581,0.68,12.65,47.84626,-54.09684
2019-01-14 08:20:00+00:00,256.2447,0.5,12.81,47.84626,-54.09684
2019-01-14 08:30:00+00:00,252.2814,0.3,12.81,47.84626,-54.09684
2019-01-14 08:40:00+00:00,250.5131,0.2,12.81,47.84626,-54.09684
2019-01-14 08:50:00+00:00,246.5864,0.2,12.81,47.84626,-54.09684
2019-01-14 09:00:00+00:00,240.8431,0.15,12.73,47.84626,-54.09684
2019-01-14 09:10:00+00:00,237.9398,0.1,12.65,47.84626,-54.09684
2019-01-14 09:20:00+00:00,233.9298,0.1,12.73,47.84626,-54.09684
2019-01-14 09:30:00+00:00,229.2615,0.06,12.73,47.84626,-54.09684
2019-01-14 09:40:00+00:00,227.5998,0.08,12.81,47.84626,-54.09684
2019-01-14 09:50:00+00:00,225.1597,0.1,12.81,47.84626,-54.09684
2019-01-14 10:00:00+00:00,221.4648,0.16,12.73,47.84626,-54.09684
2019-01-14 10:10:00+00:00,222.0681,0.19,12.65,47.84626,-54.09684
2019-01-14 10:20:00+00:00,225.3131,0.2,12.73,47.84626,-54.09684
2019-01-14 10:30:00+00:00,225.7614,0.22,12.73,47.84626,-54.09684
2019-01-14 10:40:00+00:00,226.9581,0.29,12.81,47.84626,-54.09684
2019-01-14 10:50:00+00:00,228.2848,0.34,12.81,47.84626,-54.09684
2019-01-14 11:00:00+00:00,229.6464,0.44,12.73,47.84626,-54.09684
2019-01-14 11:10:00+00:00,231.1514,0.48,12.65,47.84626,-54.09684
2019-01-14 11:20:00+00:00,232.7515,0.5,12.73,47.84626,-54.09684
2019-01-14 11:30:00+00:00,233.7031,0.5,12.81,47.84626,-54.09684
2019-01-14 11:40:00+00:00,236.2764,0.59,13.13,47.84626,-54.09684
2019-01-14 11:50:00+00:00,238.308,0.6,13.37,47.84626,-54.09684
2019-01-14 12:00:00+00:00,238.8964,0.6,13.84,47.84626,-54.09684
2019-01-14 12:10:00+00:00,240.7647,0.69,15.27,47.84626,-54.09684
2019-01-14 12:20:00+00:00,241.3864,0.7,16.39,47.84626,-54.09684
2019-01-14 12:30:00+00:00,239.4331,0.74,14.48,47.84626,-54.09684
2019-01-14 12:40:00+00:00,239.3564,0.74,16.79,47.84626,-54.09684
2019-01-14 12:50:00+00:00,240.5864,0.7,16.87,47.84626,-54.09684
2019-01-14 13:00:00+00:00,238.8348,0.7,16.71,47.84626,-54.09684
2019-01-14 13:10:00+00:00,237.1748,0.67,16.87,47.84626,-54.09684
2019-01-14 13:20:00+00:00,240.0031,0.65,16.95,47.84626,-54.09684
2019-01-14 13:30:00+00:00,241.8848,0.7,16.87,47.84626,-54.09684
2019-01-14 13:40:00+00:00,246.3581,0.7,16.79,47.84626,-54.09684
2019-01-14 13:50:00+00:00,254.1631,0.75,16.63,47.84626,-54.09684
2019-01-14 14:00:00+00:00,262.9014,0.85,15.51,47.84626,-54.09684
2019-01-14 14:10:00+00:00,269.9164,0.82,15.75,47.84626,-54.09684
2019-01-14 14:20:00+00:00,275.0581,0.8,15.83,47.84626,-54.09684
2019-01-14 14:30:00+00:00,278.9247,0.8,15.51,47.84626,-54.09684
2019-01-14 14:40:00+00:00,284.1964,0.8,15.35,47.84626,-54.09684
2019-01-14 14:50:00+00:00,285.8214,0.77,15.27,47.84626,-54.09684
2019-01-14 15:00:00+00:00,287.0664,0.72,15.04,47.84626,-54.09684
2019-01-14 15:10:00+00:00,292.098,0.7,15.11,47.84626,-54.09684
2019-01-14 15:20:00+00:00,300.2947,0.79,15.11,47.84626,-54.09684
2019-01-14 15:30:00+00:00,305.5164,1.06,15.11,47.84626,-54.09684
2019-01-14 15:40:00+00:00,309.3363,1.1,15.11,47.84626,-54.09684
2019-01-14 15:50:00+00:00,316.1147,1.1,15.04,47.84626,-54.09684
2019-01-14 16:00:00+00:00,319.8347,1.2,14.96,47.84626,-54.09684
2019-01-14 16:10:00+00:00,318.0513,1.2,14.96,47.84626,-54.09684
2019-01-14 16:20:00+00:00,320.138,1.23,14.96,47.84626,-54.09684
2019-01-14 16:30:00+00:00,324.558,1.22,14.96,47.84626,-54.09684
2019-01-14 16:40:00+00:00,326.2546,1.26,14.96,47.84626,-54.09684
2019-01-14 16:50:00+00:00,328.3279,1.28,14.96,47.84626,-54.09684
2019-01-14 17:00:00+00:00,329.6996,1.29,14.88,47.84626,-54.09684
2019-01-14 17:10:00+00:00,330.7731,1.29,14.88,47.84626,-54.09684
2019-01-14 17:20:00+00:00,327.5229,1.29,14.88,47.84626,-54.09684
2019-01-14 17:30:00+00:00,327.7214,1.3,14.88,47.84626,-54.09684
2019-01-14 17:40:00+00:00,328.7496,1.3,14.88,47.84626,-54.09684
2019-01-14 17:50:00+00:00,329.3529,1.3,14.88,47.84626,-54.09684
2019-01-14 18:00:00+00:00,322.1013,1.3,14.72,47.84626,-54.09684
2019-01-14 18:10:00+00:00,315.0447,1.3,14.72,47.84626,-54.09684
2019-01-14 18:20:00+00:00,313.2029,1.3,14.8,47.84626,-54.09684
2019-01-14 18:30:00+00:00,308.1263,1.28,14.72,47.84626,-54.09684
2019-01-14 18:40:00+00:00,304.798,1.2,14.72,47.84626,-54.09684
2019-01-14 18:50:00+00:00,307.3713,1.2,14.72,47.84626,-54.09684
2019-01-14 19:00:00+00:00,303.7213,1.13,14.56,47.84626,-54.09684
2019-01-14 19:10:00+00:00,298.773,1.1,14.48,47.84626,-54.09684
2019-01-14 19:20:00+00:00,295.9113,1.05,14.48,47.84626,-54.09684
2019-01-14 19:30:00+00:00,292.8247,1.0,14.24,47.84626,-54.09684
2019-01-14 19:40:00+00:00,285.623,0.9,14.16,47.84626,-54.09684
2019-01-14 19:50:00+00:00,278.0297,0.9,14.0,47.84626,-54.09684
2019-01-14 20:00:00+00:00,274.2198,0.78,13.84,47.84626,-54.09684
2019-01-14 20:10:00+00:00,272.0165,0.8,13.68,47.84626,-54.09684
2019-01-14 20:20:00+00:00,266.8981,0.89,13.6,47.84626,-54.09684
2019-01-14 20:30:00+00:00,261.1481,0.9,13.53,47.84626,-54.09684
2019-01-14 20:40:00+00:00,263.183,0.95,13.44,47.84626,-54.09684
2019-01-14 20:50:00+00:00,262.5231,1.0,13.44,47.84626,-54.09684
2019-01-14 21:00:00+00:00,250.7515,1.06,13.29,47.84626,-54.09684
2019-01-14 21:10:00+00:00,243.8997,1.1,13.21,47.84626,-54.09684
2019-01-14 21:20:00+00:00,245.9998,1.1,13.21,47.84626,-54.09684
2019-01-14 21:30:00+00:00,240.7414,1.1,13.21,47.84626,-54.09684
2019-01-14 21:40:00+00:00,233.8681,1.0,13.21,47.84626,-54.09684
2019-01-14 21:50:00+00:00,234.8781,1.0,13.21,47.84626,-54.09684
2019-01-14 22:00:00+00:00,235.7864,1.0,13.13,47.84626,-54.09684
2019-01-14 22:10:00+00:00,230.8481,1.0,13.05,47.84626,-54.09684
2019-01-14 22:20:00+00:00,226.0364,0.96,13.13,47.84626,-54.09684
2019-01-14 22:30:00+00:00,224.0664,0.9,13.13,47.84626,-54.09684
2019-01-14 22:40:00+00:00,227.4214,0.9,13.13,47.84626,-54.09684
2019-01-14 22:50:00+00:00,229.3948,0.9,13.13,47.84626,-54.09684
2019-01-14 23:00:00+00:00,225.5065,0.89,13.05,47.84626,-54.09684
2019-01-14 23:10:00+00:00,224.0631,0.8,12.97,47.84626,-54.09684
2019-01-14 23:20:00+00:00,228.7131,0.8,13.05,47.84626,-54.09684
2019-01-14 23:30:00+00:00,233.0864,0.8,13.05,47.84626,-54.09684
2019-01-14 23:40:00+00:00,230.5797,0.79,13.05,47.84626,-54.09684
2019-01-14 23:50:00+00:00,231.5631,0.61,13.13,47.84626,-54.09684
